Regional Weather Roundup
Issued by NWS

Home | Current Version | Previous Version | Graphics & Text | Print | Product List | Glossary On
Versions: 1 2 3 4 5 6 7 8 9 10 11 12 13 14 15 16 17 18 19 20 21 22 23 24 25 26 27 28 29 30 31 32 33 34 35 36 37 38 39 40 41 42 43 44 45 46 47 48 49 50
000
ASUS43 KLMK 222310
RWRKY
KENTUCKY REGIONAL WEATHER ROUNDUP
NATIONAL WEATHER SERVICE LOUISVILLE KY
700 PM EDT TUE APR 22 2014

NOTE "FAIR" INDICATES FEW OR NO CLOUDS BELOW 12,000 FEET
WITH NO SIGNIFICANT WEATHER AND/OR OBSTRUCTIONS TO VISIBILITY.

KYZ001>023-026-027-061>063-070>075-230000-
WESTERN AND SOUTH CENTRAL KENTUCKY

CITY           SKY/WX    TMP DP  RH WIND       PRES   REMARKS
PADUCAH        SUNNY     72  36  26 N14       29.92S
HENDERSON      SUNNY     66  37  34 NW10G16   29.92S
OWENSBORO      SUNNY     67  40  37 N10G17    29.91R
HOPKINSVILLE   SUNNY     71  42  35 NW9       29.89R
BOWLING GREEN  SUNNY     72  40  31 NW9       29.87R
GLASGOW        SUNNY     71  41  33 N13       29.85S
$$

KYZ024-025-028>034-038-045-046-053-230000-
NORTH CENTRAL KENTUCKY

CITY           SKY/WX    TMP DP  RH WIND       PRES   REMARKS
LOUISVILLE/SDF MOSUNNY   69  34  27 N22       29.86R
LOUISVILLE/LOU SUNNY     72  28  19 NW17      29.86R
FORT KNOX      SUNNY     68  35  29 W16G23    29.85R
$$

KYZ035>037-039>044-047>052-055>060-089>105-230000-
NORTHEAST KENTUCKY

CITY           SKY/WX    TMP DP  RH WIND       PRES   REMARKS
LEXINGTON      SUNNY     68  35  29 NW13      29.84R
COVINGTON      MOSUNNY   62  33  33 NW18G25   29.86R
FRANKFORT      SUNNY     67  33  28 NW14G22   29.84R
$$

KYZ054-064>069-076>088-106>120-230000-
SOUTHEAST KENTUCKY

CITY           SKY/WX    TMP DP  RH WIND       PRES   REMARKS
JACKSON        SUNNY     70  44  39 NW8G18    29.79R
LONDON         MOSUNNY   72  50  45 NW10G23   29.80R
SOMERSET       MOSUNNY   72  48  43 N10G17    29.82R
MIDDLESBORO    MOSUNNY   70  56  62 W3        29.79F
MONTICELLO     CLEAR     73  51  45 NW14      29.83R
$$




USA.gov is the U.S. government's official web portal to all federal, state and local government web resources and services.